Location: Macksville High School
(37.9611°N, 99.9654°W)
Time: 00:25:41
(UTC+00:00)

Meteor PRIRODA - Pass Details

Date: 17 January 2021
Orbit: 490 x 508 km, 97.6° (Epoch: 07 March)

Event Time Altitude Azimuth Distance (km) Brightness Sun altitude
Rises 11:58:12 0° 12° (NNE) 2,577 7.3 -22.5°
Reaches altitude 10° 12:00:17 10° 14° (NNE) 1,689 6.3 -22.1°
Maximum altitude 12:03:55 82° 103° (ESE) 500 3.5 -21.4°
Drops below altitude 10° 12:07:31 10° 190° (S) 1,674 6.3 -20.7°
Sets 12:09:34 0° 191° (SSW) 2,551 7.2 -20.3°
